Terminal Aerodrome Forecast
Issued by NWS

Home | Current Version | Previous Version | Graphics & Text | Print | Product List | Glossary On
Versions: 1 2 3 4 5 6 7 8 9 10 11 12 13 14 15 16 17 18 19 20 21
000
FTUS43 KFGF 202313 AAE
TAFBJI
TAF AMD
KBJI 202313Z 2023/2118 21011KT 1/4SM -RA FG OVC002
      TEMPO 2023/2101 OVC003
     FM210100 29013KT P6SM BKN003
     FM211100 21005KT P6SM BKN008
     FM211400 19008KT P6SM BKN040
     FM211600 20010KT P6SM SCT150=

USA.gov is the U.S. government's official web portal to all federal, state and local government web resources and services.